Location: Devore Heights
(34.2372°N, 117.4156°W)
Time: 08:25:47
(UTC+00:00)

Tiros 1 - Visible Passes

Search period start: 19 September 2024 00:00
Search period end: 29 September 2024 00:00
Orbit: 623 x 655 km, 48.4° (Epoch: 19 September)

Date Brightness Start Highest point End Pass type
(mag) Time Alt. Az. Time Alt. Az. Time Alt. Az.
19 Sep 7.6 03:33:07 10° NW 03:37:33 44° NNE 03:37:47 44° NE visible
20 Sep 8.7 02:14:57 10° NNW 02:18:38 23° NNE 02:22:19 10° ENE visible
20 Sep 7.5 03:56:27 10° NW 04:00:17 61° NW 04:00:17 61° NW visible
21 Sep 7.9 02:38:07 10° NW 02:42:26 38° NNE 02:45:22 18° E visible
21 Sep 8.9 04:20:09 10° WNW 04:22:53 29° W 04:22:53 29° W visible
22 Sep 7.0 03:01:23 10° NW 03:06:00 78° NE 03:08:03 33° ESE visible
22 Sep 9.9 04:44:49 10° W 04:45:34 12° W 04:45:34 12° W visible
23 Sep 7.9 03:24:58 10° WNW 03:29:23 45° SW 03:30:51 33° S visible
24 Sep 7.2 02:06:19 10° NW 02:10:55 66° NE 02:15:31 10° ESE visible
24 Sep 9.2 03:49:18 10° W 03:52:33 19° SW 03:53:48 17° SSW visible
25 Sep 7.7 02:29:49 10° WNW 02:34:19 55° SW 02:38:50 10° SE visible
26 Sep 9.2 02:53:53 10° W 02:57:31 23° SW 03:01:08 10° S visible
28 Sep 9.1 01:58:33 10° WNW 02:02:27 28° SW 02:06:21 10° S visible
